KLM86K EGPH-EHAM

Flight info

Callsign KLM86K
Flight time N/A
Altitude 37000
Route TLA Y96 OTBUN/N0446F350 DCT ERKIT/N0446F370 N110 DOLAS L603 LAMSO
Aircraft B738/M-SDE2E3FGHIRWXY/LB1

Departure

Time 2026-05-01 14:55
Airport Edinburgh Airport (EGPH)

Arrival

Time N/A
Airport Amsterdam Airport Schiphol (EHAM)
Time Latitude Longitude Altitude Speed Heading
2026-05-01 14:28 55.94945 -3.36362 111 ft 0 kts 148°
2026-05-01 14:47 55.94946 -3.36363 115 ft 1 kts 148°
2026-05-01 14:47 55.94966 -3.36385 111 ft 4 kts 149°
2026-05-01 14:48 55.94993 -3.36454 112 ft 4 kts 72°
2026-05-01 14:48 55.94989 -3.36471 111 ft 0 kts 58°
2026-05-01 14:51 55.94994 -3.36457 112 ft 5 kts 59°
2026-05-01 14:51 55.95107 -3.36360 114 ft 11 kts 53°
2026-05-01 14:52 55.95193 -3.36105 115 ft 15 kts 59°
2026-05-01 14:52 55.95247 -3.35945 112 ft 15 kts 59°
2026-05-01 14:52 55.95350 -3.35643 113 ft 14 kts 58°
2026-05-01 14:53 55.95398 -3.35502 114 ft 13 kts 59°
2026-05-01 14:53 55.95459 -3.35407 115 ft 12 kts 351°
2026-05-01 14:53 55.95535 -3.35480 111 ft 13 kts 330°
2026-05-01 14:53 55.95558 -3.35601 110 ft 6 kts 240°
2026-05-01 14:54 55.95557 -3.35604 110 ft 0 kts 240°
2026-05-01 14:54 55.95494 -3.35794 112 ft 50 kts 239°
2026-05-01 14:54 55.95189 -3.36691 113 ft 116 kts 238°
2026-05-01 14:54 55.94671 -3.38204 163 ft 163 kts 238°
2026-05-01 14:55 55.94063 -3.39936 780 ft 170 kts 235°
2026-05-01 14:55 55.93396 -3.41724 1505 ft 175 kts 233°
2026-05-01 14:55 55.92730 -3.43575 2190 ft 183 kts 235°
2026-05-01 14:55 55.92019 -3.45645 2471 ft 207 kts 237°
2026-05-01 14:56 55.91259 -3.47905 2939 ft 216 kts 237°
2026-05-01 14:56 55.90474 -3.50229 3612 ft 220 kts 237°
2026-05-01 14:56 55.89716 -3.52588 4426 ft 219 kts 237°
2026-05-01 14:56 55.88887 -3.54839 5240 ft 218 kts 221°
2026-05-01 14:57 55.87521 -3.55897 5925 ft 221 kts 183°
2026-05-01 14:57 55.84465 -3.54661 7317 ft 231 kts 161°
2026-05-01 14:57 55.82986 -3.53637 8032 ft 234 kts 162°
2026-05-01 14:58 55.81428 -3.52573 8703 ft 238 kts 162°
2026-05-01 14:58 55.79864 -3.51518 9337 ft 242 kts 165°
2026-05-01 14:58 55.78229 -3.50602 9886 ft 251 kts 166°
2026-05-01 14:58 55.76531 -3.49697 10397 ft 259 kts 166°
2026-05-01 14:59 55.74764 -3.48750 10899 ft 268 kts 166°
2026-05-01 14:59 55.72952 -3.47771 11400 ft 277 kts 166°
2026-05-01 14:59 55.71079 -3.46754 11923 ft 285 kts 166°
2026-05-01 14:59 55.69200 -3.45730 12417 ft 285 kts 166°
2026-05-01 15:00 55.65394 -3.43669 13451 ft 287 kts 166°
2026-05-01 15:00 55.63481 -3.42630 13961 ft 287 kts 166°
2026-05-01 15:00 55.61572 -3.41596 14431 ft 287 kts 166°
2026-05-01 15:01 55.59654 -3.40558 14918 ft 289 kts 166°
2026-05-01 15:01 55.57726 -3.39518 15421 ft 291 kts 166°
2026-05-01 15:01 55.55775 -3.38467 15912 ft 293 kts 166°
2026-05-01 15:01 55.53816 -3.37411 16452 ft 296 kts 166°
2026-05-01 15:02 55.51872 -3.36141 16926 ft 304 kts 152°
2026-05-01 15:02 55.51277 -3.35431 17096 ft 307 kts 144°
2026-05-01 15:02 55.49317 -3.30123 17938 ft 323 kts 109°
2026-05-01 15:02 55.48857 -3.26216 18489 ft 329 kts 105°
2026-05-01 15:03 55.48455 -3.22202 18963 ft 336 kts 104°
2026-05-01 15:03 55.48052 -3.18115 19447 ft 339 kts 104°
2026-05-01 15:03 55.47638 -3.14026 19918 ft 339 kts 105°
2026-05-01 15:03 55.47210 -3.09933 20393 ft 339 kts 105°
2026-05-01 15:04 55.46774 -3.05849 20887 ft 339 kts 105°
2026-05-01 15:04 55.46332 -3.01832 21385 ft 339 kts 108°
2026-05-01 15:04 55.45595 -2.97899 21900 ft 337 kts 120°